Year,Month,Day,Hour,Minute,Value (Times are PST for temperature in C)
2006,08,14,00,00,15.80
2006,08,14,00,01,15.80
2006,08,14,00,02,15.70
2006,08,14,00,03,15.70
2006,08,14,00,04,15.70
2006,08,14,00,05,15.70
2006,08,14,00,06,15.60
2006,08,14,00,07,15.60
2006,08,14,00,08,15.60
2006,08,14,00,09,15.60
2006,08,14,00,10,15.60
2006,08,14,00,11,15.60
2006,08,14,00,12,15.60
2006,08,14,00,13,15.60
2006,08,14,00,14,15.60
2006,08,14,00,15,15.60
2006,08,14,00,16,15.60
2006,08,14,00,17,15.60
2006,08,14,00,18,15.70
2006,08,14,00,19,15.70
2006,08,14,00,20,15.70
2006,08,14,00,21,15.70
2006,08,14,00,22,15.70
2006,08,14,00,23,15.60
2006,08,14,00,24,15.60
2006,08,14,00,25,15.60
2006,08,14,00,26,15.60
2006,08,14,00,27,15.60
2006,08,14,00,28,15.60
2006,08,14,00,29,15.50
2006,08,14,00,30,15.50
2006,08,14,00,31,15.50
2006,08,14,00,32,15.50
2006,08,14,00,33,15.50
2006,08,14,00,34,15.50
2006,08,14,00,35,15.40
2006,08,14,00,36,15.40
2006,08,14,00,37,15.40
2006,08,14,00,38,15.40
2006,08,14,00,39,15.40
2006,08,14,00,40,15.40
2006,08,14,00,41,15.30
2006,08,14,00,42,15.30
2006,08,14,00,43,15.30
2006,08,14,00,44,15.30
2006,08,14,00,45,15.30
2006,08,14,00,46,15.30
2006,08,14,00,47,15.30
2006,08,14,00,48,15.30
2006,08,14,00,49,15.40
2006,08,14,00,50,15.40
2006,08,14,00,51,15.40
2006,08,14,00,52,15.40
2006,08,14,00,53,15.40
2006,08,14,00,54,15.40
2006,08,14,00,55,15.40
2006,08,14,00,56,15.40
2006,08,14,00,57,15.40
2006,08,14,00,58,15.40
2006,08,14,00,59,15.40
2006,08,14,01,00,15.30
2006,08,14,01,01,15.30
2006,08,14,01,02,15.30
2006,08,14,01,03,15.30
2006,08,14,01,04,15.30
2006,08,14,01,05,15.30
2006,08,14,01,06,15.30
2006,08,14,01,07,15.30
2006,08,14,01,08,15.30
2006,08,14,01,09,15.30
2006,08,14,01,10,15.30
2006,08,14,01,11,15.30
2006,08,14,01,12,15.30
2006,08,14,01,13,15.30
2006,08,14,01,14,15.30
2006,08,14,01,15,15.30
2006,08,14,01,16,15.30
2006,08,14,01,17,15.30
2006,08,14,01,18,15.30
2006,08,14,01,19,15.30
2006,08,14,01,20,15.30
2006,08,14,01,21,15.30
2006,08,14,01,22,15.30
2006,08,14,01,23,15.30
2006,08,14,01,24,15.30
2006,08,14,01,25,15.30
2006,08,14,01,26,15.30
2006,08,14,01,27,15.30
2006,08,14,01,28,15.30
2006,08,14,01,29,15.30
2006,08,14,01,30,15.20
2006,08,14,01,31,15.20
2006,08,14,01,32,15.20
2006,08,14,01,33,15.20
2006,08,14,01,34,15.20
2006,08,14,01,35,15.20
2006,08,14,01,36,15.10
2006,08,14,01,37,15.10
2006,08,14,01,38,15.10
2006,08,14,01,39,15.10
2006,08,14,01,40,15.10
2006,08,14,01,41,15.10
2006,08,14,01,42,15.00
2006,08,14,01,43,15.00
2006,08,14,01,44,15.00
2006,08,14,01,45,15.00
2006,08,14,01,46,15.00
2006,08,14,01,47,15.00
2006,08,14,01,48,15.00
2006,08,14,01,49,15.00
2006,08,14,01,50,15.00
2006,08,14,01,51,15.00
2006,08,14,01,52,15.00
2006,08,14,01,53,15.00
2006,08,14,01,54,15.00
2006,08,14,01,55,15.00
2006,08,14,01,56,14.90
2006,08,14,01,57,14.90
2006,08,14,01,58,14.90
2006,08,14,01,59,14.90
2006,08,14,02,00,14.90
2006,08,14,02,01,14.90
2006,08,14,02,02,14.80
2006,08,14,02,03,14.80
2006,08,14,02,04,14.80
2006,08,14,02,05,14.80
2006,08,14,02,06,14.80
2006,08,14,02,07,14.80
2006,08,14,02,08,14.80
2006,08,14,02,09,14.80
2006,08,14,02,10,14.80
2006,08,14,02,11,14.80
2006,08,14,02,12,14.70
2006,08,14,02,13,14.70
2006,08,14,02,14,14.70
2006,08,14,02,15,14.70
2006,08,14,02,16,14.70
2006,08,14,02,17,14.60
2006,08,14,02,18,14.60
2006,08,14,02,19,14.60
2006,08,14,02,20,14.60
2006,08,14,02,21,14.60
2006,08,14,02,22,14.60
2006,08,14,02,23,14.60
2006,08,14,02,24,14.60
2006,08,14,02,25,14.60
2006,08,14,02,26,14.60
2006,08,14,02,27,14.60
2006,08,14,02,28,14.60
2006,08,14,02,29,14.60
2006,08,14,02,30,14.50
2006,08,14,02,31,14.50
2006,08,14,02,32,14.40
2006,08,14,02,33,14.40
2006,08,14,02,34,14.30
2006,08,14,02,35,14.30
2006,08,14,02,36,14.30
2006,08,14,02,37,14.30
2006,08,14,02,38,14.20
2006,08,14,02,39,14.20
2006,08,14,02,40,14.20
2006,08,14,02,41,14.20
2006,08,14,02,42,14.20
2006,08,14,02,43,14.20
2006,08,14,02,44,14.20
2006,08,14,02,45,14.20
2006,08,14,02,46,14.10
2006,08,14,02,47,14.10
2006,08,14,02,48,14.10
2006,08,14,02,49,14.10
2006,08,14,02,50,14.10
2006,08,14,02,51,14.10
2006,08,14,02,52,14.00
2006,08,14,02,53,14.00
2006,08,14,02,54,14.00
2006,08,14,02,55,14.00
2006,08,14,02,56,14.00
2006,08,14,02,57,14.00
2006,08,14,02,58,13.90
2006,08,14,02,59,13.90
2006,08,14,03,00,13.90
2006,08,14,03,01,13.90
2006,08,14,03,02,13.90
2006,08,14,03,03,13.90
2006,08,14,03,04,13.80
2006,08,14,03,05,13.80
2006,08,14,03,06,13.80
2006,08,14,03,07,13.80
2006,08,14,03,08,13.80
2006,08,14,03,09,13.70
2006,08,14,03,10,13.70
2006,08,14,03,11,13.70
2006,08,14,03,12,13.70
2006,08,14,03,13,13.70
2006,08,14,03,14,13.70
2006,08,14,03,15,13.70
2006,08,14,03,16,13.70
2006,08,14,03,17,13.70
2006,08,14,03,18,13.70
2006,08,14,03,19,13.70
2006,08,14,03,20,13.60
2006,08,14,03,21,13.60
2006,08,14,03,22,13.60
2006,08,14,03,23,13.60
2006,08,14,03,24,13.60
2006,08,14,03,25,13.60
2006,08,14,03,26,13.60
2006,08,14,03,27,13.50
2006,08,14,03,28,13.50
2006,08,14,03,29,13.50
2006,08,14,03,30,13.50
2006,08,14,03,31,13.50
2006,08,14,03,32,13.50
2006,08,14,03,33,13.50
2006,08,14,03,34,13.40
2006,08,14,03,35,13.40
2006,08,14,03,36,13.40
2006,08,14,03,37,13.40
2006,08,14,03,38,13.40
2006,08,14,03,39,13.40
2006,08,14,03,40,13.40
2006,08,14,03,41,13.40
2006,08,14,03,42,13.30
2006,08,14,03,43,13.30
2006,08,14,03,44,13.30
2006,08,14,03,45,13.30
2006,08,14,03,46,13.30
2006,08,14,03,47,13.30
2006,08,14,03,48,13.30
2006,08,14,03,49,13.30
2006,08,14,03,50,13.30
2006,08,14,03,51,13.30
2006,08,14,03,52,13.30
2006,08,14,03,53,13.30
2006,08,14,03,54,13.20
2006,08,14,03,55,13.20
2006,08,14,03,56,13.20
2006,08,14,03,57,13.30
2006,08,14,03,58,13.30
2006,08,14,03,59,13.30
2006,08,14,04,00,13.30
2006,08,14,04,01,13.30
2006,08,14,04,02,13.30
2006,08,14,04,03,13.30
2006,08,14,04,04,13.20
2006,08,14,04,05,13.20
2006,08,14,04,06,13.20
2006,08,14,04,07,13.20
2006,08,14,04,08,13.20
2006,08,14,04,09,13.20
2006,08,14,04,10,13.20
2006,08,14,04,11,13.10
2006,08,14,04,12,13.10
2006,08,14,04,13,13.10
2006,08,14,04,14,13.10
2006,08,14,04,15,13.10
2006,08,14,04,16,13.00
2006,08,14,04,17,13.00
2006,08,14,04,18,13.00
2006,08,14,04,19,13.00
2006,08,14,04,20,12.90
2006,08,14,04,21,12.90
2006,08,14,04,22,12.90
2006,08,14,04,23,12.80
2006,08,14,04,24,12.80
2006,08,14,04,25,12.80
2006,08,14,04,26,12.80
2006,08,14,04,27,12.80
2006,08,14,04,28,12.80
2006,08,14,04,29,12.80
2006,08,14,04,30,12.80
2006,08,14,04,31,12.80
2006,08,14,04,32,12.80
2006,08,14,04,33,12.80
2006,08,14,04,34,12.80
2006,08,14,04,35,12.80
2006,08,14,04,36,12.80
2006,08,14,04,37,12.80
2006,08,14,04,38,12.80
2006,08,14,04,39,12.70
2006,08,14,04,40,12.70
2006,08,14,04,41,12.70
2006,08,14,04,42,12.70
2006,08,14,04,43,12.60
2006,08,14,04,44,12.60
2006,08,14,04,45,12.60
2006,08,14,04,46,12.60
2006,08,14,04,47,12.50
2006,08,14,04,48,12.50
2006,08,14,04,49,12.50
2006,08,14,04,50,12.50
2006,08,14,04,51,12.50
2006,08,14,04,52,12.50
2006,08,14,04,53,12.40
2006,08,14,04,54,12.40
2006,08,14,04,55,12.40
2006,08,14,04,56,12.40
2006,08,14,04,57,12.30
2006,08,14,04,58,12.30
2006,08,14,04,59,12.30
2006,08,14,05,00,12.30
2006,08,14,05,01,12.30
2006,08,14,05,02,12.30
2006,08,14,05,03,12.30
2006,08,14,05,04,12.30
2006,08,14,05,05,12.30
2006,08,14,05,06,12.30
2006,08,14,05,07,12.20
2006,08,14,05,08,12.20
2006,08,14,05,09,12.20
2006,08,14,05,10,12.20
2006,08,14,05,11,12.20
2006,08,14,05,12,12.20
2006,08,14,05,13,12.20
2006,08,14,05,14,12.20
2006,08,14,05,15,12.20
2006,08,14,05,16,12.20
2006,08,14,05,17,12.20
2006,08,14,05,18,12.20
2006,08,14,05,19,12.20
2006,08,14,05,20,12.30
2006,08,14,05,21,12.30
2006,08,14,05,22,12.30
2006,08,14,05,23,12.30
2006,08,14,05,24,12.30
2006,08,14,05,25,12.30
2006,08,14,05,26,12.30
2006,08,14,05,27,12.20
2006,08,14,05,28,12.20
2006,08,14,05,29,12.20
2006,08,14,05,30,12.20
2006,08,14,05,31,12.20
2006,08,14,05,32,12.20
2006,08,14,05,33,12.20
2006,08,14,05,34,12.20
2006,08,14,05,35,12.20
2006,08,14,05,36,12.20
2006,08,14,05,37,12.20
2006,08,14,05,38,12.20
2006,08,14,05,39,12.20
2006,08,14,05,40,12.20
2006,08,14,05,41,12.10
2006,08,14,05,42,12.10
2006,08,14,05,43,12.10
2006,08,14,05,44,12.10
2006,08,14,05,45,12.10
2006,08,14,05,46,12.00
2006,08,14,05,47,12.00
2006,08,14,05,48,12.00
2006,08,14,05,49,12.00
2006,08,14,05,50,12.00
2006,08,14,05,51,11.90
2006,08,14,05,52,11.90
2006,08,14,05,53,11.90
2006,08,14,05,54,11.90
2006,08,14,05,55,11.90
2006,08,14,05,56,11.90
2006,08,14,05,57,11.90
2006,08,14,05,58,11.80
2006,08,14,05,59,11.80
2006,08,14,06,00,11.80
2006,08,14,06,01,11.80
2006,08,14,06,02,11.80
2006,08,14,06,03,11.80
2006,08,14,06,04,11.80
2006,08,14,06,05,11.80
2006,08,14,06,06,11.80
2006,08,14,06,07,11.80
2006,08,14,06,08,11.80
2006,08,14,06,09,11.80
2006,08,14,06,10,11.80
2006,08,14,06,11,11.80
2006,08,14,06,12,11.80
2006,08,14,06,13,11.80
2006,08,14,06,14,11.80
2006,08,14,06,15,11.80
2006,08,14,06,16,11.70
2006,08,14,06,17,11.70
2006,08,14,06,18,11.70
2006,08,14,06,19,11.70
2006,08,14,06,20,11.80
2006,08,14,06,21,11.70
2006,08,14,06,22,11.70
2006,08,14,06,23,11.70
2006,08,14,06,24,11.70
2006,08,14,06,25,11.60
2006,08,14,06,26,11.60
2006,08,14,06,27,11.60
2006,08,14,06,28,11.60
2006,08,14,06,29,11.60
2006,08,14,06,30,11.60
2006,08,14,06,31,11.60
2006,08,14,06,32,11.60
2006,08,14,06,33,11.60
2006,08,14,06,34,11.60
2006,08,14,06,35,11.60
2006,08,14,06,36,11.60
2006,08,14,06,37,11.60
2006,08,14,06,38,11.60
2006,08,14,06,39,11.60
2006,08,14,06,40,11.60
2006,08,14,06,41,11.60
2006,08,14,06,42,11.60
2006,08,14,06,43,11.60
2006,08,14,06,44,11.60
2006,08,14,06,45,11.60
2006,08,14,06,46,11.60
2006,08,14,06,47,11.60
2006,08,14,06,48,11.70
2006,08,14,06,49,11.70
2006,08,14,06,50,11.70
2006,08,14,06,51,11.80
2006,08,14,06,52,11.80
2006,08,14,06,53,11.80
2006,08,14,06,54,11.80
2006,08,14,06,55,11.80
2006,08,14,06,56,11.80
2006,08,14,06,57,11.80
2006,08,14,06,58,11.80
2006,08,14,06,59,11.80
2006,08,14,07,00,11.90
2006,08,14,07,01,11.90
2006,08,14,07,02,11.90
2006,08,14,07,03,11.90
2006,08,14,07,04,12.00
2006,08,14,07,05,12.00
2006,08,14,07,06,12.00
2006,08,14,07,07,12.00
2006,08,14,07,08,12.00
2006,08,14,07,09,12.00
2006,08,14,07,10,12.00
2006,08,14,07,11,12.10
2006,08,14,07,12,12.10
2006,08,14,07,13,12.20
2006,08,14,07,14,12.30
2006,08,14,07,15,12.30
2006,08,14,07,16,12.40
2006,08,14,07,17,12.50
2006,08,14,07,18,12.50
2006,08,14,07,19,12.60
2006,08,14,07,20,12.70
2006,08,14,07,21,12.80
2006,08,14,07,22,12.90
2006,08,14,07,23,13.10
2006,08,14,07,24,13.20
2006,08,14,07,25,13.30
2006,08,14,07,26,13.40
2006,08,14,07,27,13.60
2006,08,14,07,28,13.70
2006,08,14,07,29,13.70
2006,08,14,07,30,13.90
2006,08,14,07,31,14.00
2006,08,14,07,32,14.10
2006,08,14,07,33,14.20
2006,08,14,07,34,14.30
2006,08,14,07,35,14.40
2006,08,14,07,36,14.50
2006,08,14,07,37,14.60
2006,08,14,07,38,14.70
2006,08,14,07,39,14.70
2006,08,14,07,40,14.80
2006,08,14,07,41,14.90
2006,08,14,07,42,15.00
2006,08,14,07,43,15.10
2006,08,14,07,44,15.30
2006,08,14,07,45,15.30
2006,08,14,07,46,15.40
2006,08,14,07,47,15.40
2006,08,14,07,48,15.50
2006,08,14,07,49,15.50
2006,08,14,07,50,15.50
2006,08,14,07,51,15.70
2006,08,14,07,52,15.80
2006,08,14,07,53,16.00
2006,08,14,07,54,16.10
2006,08,14,07,55,16.30
2006,08,14,07,56,16.40
2006,08,14,07,57,16.60
2006,08,14,07,58,16.80
2006,08,14,07,59,17.00
2006,08,14,08,00,17.10
2006,08,14,08,01,17.30
2006,08,14,08,02,17.40
2006,08,14,08,03,17.50
2006,08,14,08,04,17.60
2006,08,14,08,05,17.70
2006,08,14,08,06,17.80
2006,08,14,08,07,17.80
2006,08,14,08,08,17.90
2006,08,14,08,09,17.90
2006,08,14,08,10,18.00
2006,08,14,08,11,18.10
2006,08,14,08,12,18.20
2006,08,14,08,13,18.30
2006,08,14,08,14,18.40
2006,08,14,08,15,18.40
2006,08,14,08,16,18.50
2006,08,14,08,17,18.60
2006,08,14,08,18,18.60
2006,08,14,08,19,18.80
2006,08,14,08,20,18.80
2006,08,14,08,21,18.90
2006,08,14,08,22,18.90
2006,08,14,08,23,19.00
2006,08,14,08,24,19.10
2006,08,14,08,25,19.10
2006,08,14,08,26,19.20
2006,08,14,08,27,19.30
2006,08,14,08,28,19.40
2006,08,14,08,29,19.50
2006,08,14,08,30,19.50
2006,08,14,08,31,19.50
2006,08,14,08,32,19.60
2006,08,14,08,33,19.60
2006,08,14,08,34,19.60
2006,08,14,08,35,19.60
2006,08,14,08,36,19.60
2006,08,14,08,37,19.60
2006,08,14,08,38,19.60
2006,08,14,08,39,19.70
2006,08,14,08,40,19.70
2006,08,14,08,41,19.70
2006,08,14,08,42,19.70
2006,08,14,08,43,19.60
2006,08,14,08,44,19.60
2006,08,14,08,45,19.60
2006,08,14,08,46,19.60
2006,08,14,08,47,19.70
2006,08,14,08,48,19.70
2006,08,14,08,49,19.70
2006,08,14,08,50,19.80
2006,08,14,08,51,19.80
2006,08,14,08,52,19.80
2006,08,14,08,53,19.90
2006,08,14,08,54,19.90
2006,08,14,08,55,19.90
2006,08,14,08,56,20.00
2006,08,14,08,57,20.10
2006,08,14,08,58,20.10
2006,08,14,08,59,19.90
2006,08,14,09,00,19.90
2006,08,14,09,01,19.90
2006,08,14,09,02,20.00
2006,08,14,09,03,20.10
2006,08,14,09,04,20.10
2006,08,14,09,05,20.20
2006,08,14,09,06,20.20
2006,08,14,09,07,20.20
2006,08,14,09,08,20.20
2006,08,14,09,09,20.20
2006,08,14,09,10,20.30
2006,08,14,09,11,20.30
2006,08,14,09,12,20.30
2006,08,14,09,13,20.40
2006,08,14,09,14,20.40
2006,08,14,09,15,20.30
2006,08,14,09,16,20.20
2006,08,14,09,17,20.20
2006,08,14,09,18,20.20
2006,08,14,09,19,20.20
2006,08,14,09,20,20.20
2006,08,14,09,21,20.30
2006,08,14,09,22,20.30
2006,08,14,09,23,20.30
2006,08,14,09,24,20.30
2006,08,14,09,25,20.30
2006,08,14,09,26,20.30
2006,08,14,09,27,20.30
2006,08,14,09,28,20.40
2006,08,14,09,29,20.50
2006,08,14,09,30,20.60
2006,08,14,09,31,20.60
2006,08,14,09,32,20.60
2006,08,14,09,33,20.60
2006,08,14,09,34,20.60
2006,08,14,09,35,20.60
2006,08,14,09,36,20.70
2006,08,14,09,37,20.60
2006,08,14,09,38,20.60
2006,08,14,09,39,20.60
2006,08,14,09,40,20.60
2006,08,14,09,41,20.60
2006,08,14,09,42,20.60
2006,08,14,09,43,20.50
2006,08,14,09,44,20.50
2006,08,14,09,45,20.50
2006,08,14,09,46,20.50
2006,08,14,09,47,20.50
2006,08,14,09,48,20.50
2006,08,14,09,49,20.50
2006,08,14,09,50,20.50
2006,08,14,09,51,20.50
2006,08,14,09,52,20.50
2006,08,14,09,53,20.40
2006,08,14,09,54,20.40
2006,08,14,09,55,20.40
2006,08,14,09,56,20.40
2006,08,14,09,57,20.40
2006,08,14,09,58,20.40
2006,08,14,09,59,20.40
2006,08,14,10,00,20.30
2006,08,14,10,01,20.30
2006,08,14,10,02,20.20
2006,08,14,10,03,20.20
2006,08,14,10,04,20.20
2006,08,14,10,05,20.20
2006,08,14,10,06,20.20
2006,08,14,10,07,20.20
2006,08,14,10,08,20.10
2006,08,14,10,09,20.10
2006,08,14,10,10,20.20
2006,08,14,10,11,20.20
2006,08,14,10,12,20.20
2006,08,14,10,13,20.30
2006,08,14,10,14,20.40
2006,08,14,10,15,20.50
2006,08,14,10,16,20.50
2006,08,14,10,17,20.60
2006,08,14,10,18,20.60
2006,08,14,10,19,20.70
2006,08,14,10,20,20.80
2006,08,14,10,21,20.80
2006,08,14,10,22,20.90
2006,08,14,10,23,20.90
2006,08,14,10,24,21.00
2006,08,14,10,25,21.00
2006,08,14,10,26,21.00
2006,08,14,10,27,20.90
2006,08,14,10,28,20.90
2006,08,14,10,29,21.00
2006,08,14,10,30,21.10
2006,08,14,10,31,21.10
2006,08,14,10,32,21.20
2006,08,14,10,33,21.30
2006,08,14,10,34,21.30
2006,08,14,10,35,21.30
2006,08,14,10,36,21.30
2006,08,14,10,37,21.30
2006,08,14,10,38,21.20
2006,08,14,10,39,21.30
2006,08,14,10,40,21.30
2006,08,14,10,41,21.30
2006,08,14,10,42,21.20
2006,08,14,10,43,21.10
2006,08,14,10,44,21.00
2006,08,14,10,45,21.00
2006,08,14,10,46,21.00
2006,08,14,10,47,21.10
2006,08,14,10,48,21.10
2006,08,14,10,49,21.20
2006,08,14,10,50,21.30
2006,08,14,10,51,21.30
2006,08,14,10,52,21.30
2006,08,14,10,53,21.30
2006,08,14,10,54,21.30
2006,08,14,10,55,21.30
2006,08,14,10,56,21.30
2006,08,14,10,57,21.30
2006,08,14,10,58,21.50
2006,08,14,10,59,21.60
2006,08,14,11,00,21.60
2006,08,14,11,01,21.60
2006,08,14,11,02,21.60
2006,08,14,11,03,21.70
2006,08,14,11,04,21.80
2006,08,14,11,05,21.80
2006,08,14,11,06,21.90
2006,08,14,11,07,21.90
2006,08,14,11,08,21.90
2006,08,14,11,09,21.90
2006,08,14,11,10,21.80
2006,08,14,11,11,21.70
2006,08,14,11,12,21.80
2006,08,14,11,13,21.90
2006,08,14,11,14,21.90
2006,08,14,11,15,21.90
2006,08,14,11,16,21.90
2006,08,14,11,17,21.80
2006,08,14,11,18,21.70
2006,08,14,11,19,21.80
2006,08,14,11,20,21.90
2006,08,14,11,21,22.00
2006,08,14,11,22,22.00
2006,08,14,11,23,22.00
2006,08,14,11,24,22.00
2006,08,14,11,25,22.00
2006,08,14,11,26,22.00
2006,08,14,11,27,22.00
2006,08,14,11,28,22.00
2006,08,14,11,29,22.00
2006,08,14,11,30,22.00
2006,08,14,11,31,22.00
2006,08,14,11,32,22.00
2006,08,14,11,33,21.90
2006,08,14,11,34,21.80
2006,08,14,11,35,21.70
2006,08,14,11,36,21.70
2006,08,14,11,37,21.70
2006,08,14,11,38,21.70
2006,08,14,11,39,21.60
2006,08,14,11,40,21.60
2006,08,14,11,41,21.60
2006,08,14,11,42,21.60
2006,08,14,11,43,21.60
2006,08,14,11,44,21.60
2006,08,14,11,45,21.60
2006,08,14,11,46,21.60
2006,08,14,11,47,21.60
2006,08,14,11,48,21.70
2006,08,14,11,49,21.90
2006,08,14,11,50,22.00
2006,08,14,11,51,22.10
2006,08,14,11,52,22.10
2006,08,14,11,53,22.10
2006,08,14,11,54,22.10
2006,08,14,11,55,22.10
2006,08,14,11,56,22.10
2006,08,14,11,57,22.20
2006,08,14,11,58,22.20
2006,08,14,11,59,22.20
2006,08,14,12,00,22.20
2006,08,14,12,01,22.20
2006,08,14,12,02,22.30
2006,08,14,12,03,22.30
2006,08,14,12,04,22.20
2006,08,14,12,05,22.10
2006,08,14,12,06,22.00
2006,08,14,12,07,22.00
2006,08,14,12,08,22.00
2006,08,14,12,09,22.00
2006,08,14,12,10,22.10
2006,08,14,12,11,22.10
2006,08,14,12,12,22.10
2006,08,14,12,13,22.20
2006,08,14,12,14,22.30
2006,08,14,12,15,22.40
2006,08,14,12,16,22.40
2006,08,14,12,17,22.30
2006,08,14,12,18,22.30
2006,08,14,12,19,22.30
2006,08,14,12,20,22.30
2006,08,14,12,21,22.30
2006,08,14,12,22,22.30
2006,08,14,12,23,22.30
2006,08,14,12,24,22.40
2006,08,14,12,25,22.50
2006,08,14,12,26,22.50
2006,08,14,12,27,22.50
2006,08,14,12,28,22.50
2006,08,14,12,29,22.40
2006,08,14,12,30,22.40
2006,08,14,12,31,22.30
2006,08,14,12,32,22.20
2006,08,14,12,33,22.20
2006,08,14,12,34,22.20
2006,08,14,12,35,22.10
2006,08,14,12,36,22.10
2006,08,14,12,37,22.20
2006,08,14,12,38,22.20
2006,08,14,12,39,22.30
2006,08,14,12,40,22.40
2006,08,14,12,41,22.50
2006,08,14,12,42,22.50
2006,08,14,12,43,22.40
2006,08,14,12,44,22.50
2006,08,14,12,45,22.50
2006,08,14,12,46,22.50
2006,08,14,12,47,22.30
2006,08,14,12,48,22.20
2006,08,14,12,49,22.10
2006,08,14,12,50,22.00
2006,08,14,12,51,21.90
2006,08,14,12,52,21.80
2006,08,14,12,53,21.80
2006,08,14,12,54,21.80
2006,08,14,12,55,21.90
2006,08,14,12,56,21.90
2006,08,14,12,57,22.00
2006,08,14,12,58,22.10
2006,08,14,12,59,22.20
2006,08,14,13,00,22.30
2006,08,14,13,01,22.40
2006,08,14,13,02,22.60
2006,08,14,13,03,22.70
2006,08,14,13,04,22.80
2006,08,14,13,05,22.70
2006,08,14,13,06,22.70
2006,08,14,13,07,22.80
2006,08,14,13,08,22.90
2006,08,14,13,09,22.80
2006,08,14,13,10,22.90
2006,08,14,13,11,22.90
2006,08,14,13,12,22.90
2006,08,14,13,13,22.90
2006,08,14,13,14,22.90
2006,08,14,13,15,23.10
2006,08,14,13,16,23.20
2006,08,14,13,17,23.20
2006,08,14,13,18,23.20
2006,08,14,13,19,23.10
2006,08,14,13,20,23.10
2006,08,14,13,21,23.10
2006,08,14,13,22,23.10
2006,08,14,13,23,23.20
2006,08,14,13,24,23.20
2006,08,14,13,25,23.30
2006,08,14,13,26,23.30
2006,08,14,13,27,23.30
2006,08,14,13,28,23.30
2006,08,14,13,29,23.40
2006,08,14,13,30,23.40
2006,08,14,13,31,23.30
2006,08,14,13,32,23.20
2006,08,14,13,33,23.20
2006,08,14,13,34,23.20
2006,08,14,13,35,23.30
2006,08,14,13,36,23.30
2006,08,14,13,37,23.30
2006,08,14,13,38,23.30
2006,08,14,13,39,23.30
2006,08,14,13,40,23.30
2006,08,14,13,41,23.30
2006,08,14,13,42,23.30
2006,08,14,13,43,23.40
2006,08,14,13,44,23.40
2006,08,14,13,45,23.40
2006,08,14,13,46,23.40
2006,08,14,13,47,23.40
2006,08,14,13,48,23.30
2006,08,14,13,49,23.40
2006,08,14,13,50,23.40
2006,08,14,13,51,23.40
2006,08,14,13,52,23.40
2006,08,14,13,53,23.20
2006,08,14,13,54,23.00
2006,08,14,13,55,22.90
2006,08,14,13,56,22.90
2006,08,14,13,57,22.90
2006,08,14,13,58,22.90
2006,08,14,13,59,22.80
2006,08,14,14,00,22.70
2006,08,14,14,01,22.70
2006,08,14,14,02,22.80
2006,08,14,14,03,23.00
2006,08,14,14,04,23.10
2006,08,14,14,05,23.10
2006,08,14,14,06,23.00
2006,08,14,14,07,22.90
2006,08,14,14,08,22.90
2006,08,14,14,09,23.00
2006,08,14,14,10,23.10
2006,08,14,14,11,23.20
2006,08,14,14,12,23.20
2006,08,14,14,13,23.30
2006,08,14,14,14,23.30
2006,08,14,14,15,23.30
2006,08,14,14,16,23.30
2006,08,14,14,17,23.50
2006,08,14,14,18,23.60
2006,08,14,14,19,23.80
2006,08,14,14,20,24.00
2006,08,14,14,21,24.10
2006,08,14,14,22,24.20
2006,08,14,14,23,24.20
2006,08,14,14,24,24.20
2006,08,14,14,25,24.20
2006,08,14,14,26,24.20
2006,08,14,14,27,24.30
2006,08,14,14,28,24.30
2006,08,14,14,29,24.40
2006,08,14,14,30,24.40
2006,08,14,14,31,24.40
2006,08,14,14,32,24.40
2006,08,14,14,33,24.20
2006,08,14,14,34,24.20
2006,08,14,14,35,24.30
2006,08,14,14,36,24.30
2006,08,14,14,37,24.30
2006,08,14,14,38,24.10
2006,08,14,14,39,23.90
2006,08,14,14,40,23.80
2006,08,14,14,41,23.80
2006,08,14,14,42,23.70
2006,08,14,14,43,23.80
2006,08,14,14,44,23.80
2006,08,14,14,45,23.70
2006,08,14,14,46,23.70
2006,08,14,14,47,23.70
2006,08,14,14,48,23.60
2006,08,14,14,49,23.50
2006,08,14,14,50,23.40
2006,08,14,14,51,23.40
2006,08,14,14,52,23.50
2006,08,14,14,53,23.60
2006,08,14,14,54,23.70
2006,08,14,14,55,23.70
2006,08,14,14,56,23.70
2006,08,14,14,57,23.80
2006,08,14,14,58,23.70
2006,08,14,14,59,23.70
2006,08,14,15,00,23.70
2006,08,14,15,01,23.70
2006,08,14,15,02,23.60
2006,08,14,15,03,23.20
2006,08,14,15,04,23.10
2006,08,14,15,05,22.90
2006,08,14,15,06,22.90
2006,08,14,15,07,22.90
2006,08,14,15,08,23.10
2006,08,14,15,09,23.20
2006,08,14,15,10,23.30
2006,08,14,15,11,23.50
2006,08,14,15,12,23.70
2006,08,14,15,13,23.80
2006,08,14,15,14,24.00
2006,08,14,15,15,24.20
2006,08,14,15,16,24.40
2006,08,14,15,17,24.40
2006,08,14,15,18,24.30
2006,08,14,15,19,24.30
2006,08,14,15,20,24.30
2006,08,14,15,21,24.30
2006,08,14,15,22,24.30
2006,08,14,15,23,24.30
2006,08,14,15,24,24.30
2006,08,14,15,25,24.30
2006,08,14,15,26,24.50
2006,08,14,15,27,24.60
2006,08,14,15,28,24.60
2006,08,14,15,29,24.60
2006,08,14,15,30,24.70
2006,08,14,15,31,24.70
2006,08,14,15,32,24.90
2006,08,14,15,33,25.00
2006,08,14,15,34,25.10
2006,08,14,15,35,25.20
2006,08,14,15,36,25.30
2006,08,14,15,37,25.40
2006,08,14,15,38,25.40
2006,08,14,15,39,25.30
2006,08,14,15,40,25.40
2006,08,14,15,41,25.50
2006,08,14,15,42,25.50
2006,08,14,15,43,25.40
2006,08,14,15,44,25.40
2006,08,14,15,45,25.40
2006,08,14,15,46,25.40
2006,08,14,15,47,25.40
2006,08,14,15,48,25.50
2006,08,14,15,49,25.60
2006,08,14,15,50,25.70
2006,08,14,15,51,25.70
2006,08,14,15,52,25.70
2006,08,14,15,53,25.70
2006,08,14,15,54,25.70
2006,08,14,15,55,25.60
2006,08,14,15,56,25.60
2006,08,14,15,57,25.70
2006,08,14,15,58,25.70
2006,08,14,15,59,25.70
2006,08,14,16,00,25.80
2006,08,14,16,01,25.90
2006,08,14,16,02,25.90
2006,08,14,16,03,25.90
2006,08,14,16,04,25.90
2006,08,14,16,05,25.90
2006,08,14,16,06,26.00
2006,08,14,16,07,26.00
2006,08,14,16,08,26.10
2006,08,14,16,09,26.00
2006,08,14,16,10,26.00
2006,08,14,16,11,26.00
2006,08,14,16,12,26.10
2006,08,14,16,13,26.20
2006,08,14,16,14,26.30
2006,08,14,16,15,26.40
2006,08,14,16,16,26.50
2006,08,14,16,17,26.60
2006,08,14,16,18,26.60
2006,08,14,16,19,26.70
2006,08,14,16,20,26.70
2006,08,14,16,21,26.70
2006,08,14,16,22,26.60
2006,08,14,16,23,26.60
2006,08,14,16,24,26.60
2006,08,14,16,25,26.60
2006,08,14,16,26,26.50
2006,08,14,16,27,26.60
2006,08,14,16,28,26.60
2006,08,14,16,29,26.50
2006,08,14,16,30,26.50
2006,08,14,16,31,26.40
2006,08,14,16,32,26.40
2006,08,14,16,33,26.40
2006,08,14,16,34,26.50
2006,08,14,16,35,26.60
2006,08,14,16,36,26.60
2006,08,14,16,37,26.60
2006,08,14,16,38,26.60
2006,08,14,16,39,26.70
2006,08,14,16,40,26.90
2006,08,14,16,41,27.10
2006,08,14,16,42,27.30
2006,08,14,16,43,27.30
2006,08,14,16,44,27.30
2006,08,14,16,45,27.20
2006,08,14,16,46,27.20
2006,08,14,16,47,27.10
2006,08,14,16,48,27.00
2006,08,14,16,49,26.90
2006,08,14,16,50,26.80
2006,08,14,16,51,26.80
2006,08,14,16,52,26.70
2006,08,14,16,53,26.60
2006,08,14,16,54,26.60
2006,08,14,16,55,26.60
2006,08,14,16,56,26.60
2006,08,14,16,57,26.70
2006,08,14,16,58,26.80
2006,08,14,16,59,26.80
2006,08,14,17,00,26.80
2006,08,14,17,01,26.80
2006,08,14,17,02,26.80
2006,08,14,17,03,26.80
2006,08,14,17,04,26.80
2006,08,14,17,05,26.80
2006,08,14,17,06,26.80
2006,08,14,17,07,26.80
2006,08,14,17,08,26.80
2006,08,14,17,09,26.70
2006,08,14,17,10,26.80
2006,08,14,17,11,26.80
2006,08,14,17,12,26.90
2006,08,14,17,13,26.90
2006,08,14,17,14,26.90
2006,08,14,17,15,26.90
2006,08,14,17,16,27.00
2006,08,14,17,17,27.10
2006,08,14,17,18,27.10
2006,08,14,17,19,27.20